Weather in Nedelnoye

Russia / Kaluga Oblast     54°50′18″N   36°38′56″E
temp.,
°C
wind,
m/s
gust,
m/s
humid.,
%
clouds,
%
prec.,
mm/h
press.,
hPa
HPBL,
m
18 may, tue
tue1800:00+18ese51582100 0.0 1008497
03:00+16ese411855 0.0 1008270
06:00+16se3108221 0.0 1007248
09:00+21se595976 0.0 1007455
12:00+25se6104643 0.0 1007851
15:00+26ese610495 0.0 10061223
18:00+23ese61460100 0.0 10051247
21:00+20ese616715 0.0 1004864
19 may, wed
wed1900:00+16se24940 0.3 100577
03:00+14se259891 0.6 1005102
06:00+14sse41193100 0.3 1006523
09:00+18sse587538 0.3 1007913
12:00+21sse586039 0.1 10071652
15:00+22sse595366 0.4 10061994
18:00+20sse3771100 0.5 10061138
21:00+15ese1189100 0.8 100611
20 may, thu
thu2000:00+14ese2395100 0.7 100550
03:00+13e3109699 0.7 1004242
06:00+12se5119317 0.0 1004672
09:00+13se6128359 0.1 1004987
12:00+16se81376100 0.9 10031610
15:00+13sse71290100 1.9 10041023
18:00+12s7138999 0.1 10051071
21:00+11ssw5128889 0.3 1007796
21 may, fri
fri2100:00+10sw4988100 0.0 1008725
03:00+9wsw4793100 0.1 1009535
06:00+9w4998100 1.7 1010616
09:00+10wnw4796100 2.1 1013711
12:00+11nw279099 0.1 1014661
15:00+17nnw365399 0.1 10141816
18:00+16wnw366396 0.0 1015401
21:00+12wnw2273100 0.0 101713
22 may, sat
sat2200:00+11ssw1174100 0.0 101710
03:00+9w1178100 0.0 101810
06:00+11nne117898 0.0 101817
09:00+16ene2359100 0.0 1018481
12:00+16se3463100 0.0 1019981
15:00+17se3462100 0.1 10181249
18:00+15ese347298 0.0 1018785
21:00+11e23960 0.0 101868